Date,TemperatureHighF,TemperatureAvgF,TemperatureLowF,DewpointHighF,DewpointAvgF,DewpointLowF,HumidityHigh,HumidityAvg,HumidityLow,PressureMaxIn,PressureMinIn,WindSpeedMaxMPH,WindSpeedAvgMPH,GustSpeedMaxMPH,PrecipitationSumIn
2013-3-1,52,50,45,51,49,44,98,97,94,30.49,30.34,31,6,31,0.01
2013-3-2,50,46,42,49,46,41,98,97,93,30.34,30.24,28,4,28,0.04
2013-3-3,47,43,38,43,38,35,95,84,75,30.34,30.22,23,6,23,0.01
2013-3-4,53,45,35,44,38,32,90,77,52,30.22,29.88,36,6,36,0.00
2013-3-5,46,43,41,42,41,33,94,92,61,29.88,29.61,22,5,22,0.56
2013-3-6,48,44,42,44,42,40,96,91,85,29.96,29.56,32,8,32,0.33
2013-3-7,52,45,39,43,40,36,92,83,67,30.06,29.96,15,4,15,0.00
2013-3-8,48,43,36,45,41,34,96,91,87,30.24,30.03,20,6,20,0.00
2013-3-9,50,43,37,46,40,35,96,91,82,30.52,30.24,17,4,17,0.01
2013-3-10,49,44,37,47,42,35,96,93,85,30.51,30.44,7,1,7,0.01
2013-3-11,51,48,47,50,47,46,98,97,95,30.44,30.25,7,1,7,0.01
2013-3-12,50,48,46,49,47,45,97,97,95,30.26,30.21,16,4,16,0.00
2013-3-13,52,48,45,50,46,44,98,96,90,30.27,30.14,15,2,15,0.01
2013-3-14,51,48,47,49,46,45,97,93,85,30.24,30.10,30,9,30,0.07
2013-3-15,51,49,46,51,48,45,98,98,97,30.27,30.23,19,4,19,0.01
2013-3-16,48,46,42,47,44,36,98,94,72,30.23,30.08,38,10,38,0.18
2013-3-17,48,44,40,39,37,33,90,76,67,30.34,30.22,30,8,30,0.02
2013-3-18,48,42,35,43,39,34,96,88,78,30.31,30.11,22,4,22,0.10
2013-3-19,53,48,41,49,41,35,95,77,64,30.11,29.66,46,7,46,0.64
2013-3-20,52,47,43,49,43,36,97,85,68,30.22,29.57,60,20,60,0.22
2013-3-21,47,44,40,41,38,35,88,79,67,30.36,30.22,37,12,37,0.13
2013-3-22,46,41,36,40,36,33,93,84,72,30.41,30.34,39,6,39,0.13
2013-3-23,46,41,35,37,35,32,93,79,62,30.41,30.27,19,4,19,0.01
2013-3-24,49,44,39,42,37,33,84,74,62,30.28,30.10,14,4,14,0.00
2013-3-25,50,45,40,44,40,36,91,83,74,30.10,29.97,12,3,12,0.00
2013-3-26,50,47,45,48,45,42,95,93,91,30.03,29.96,12,2,12,0.02
2013-3-27,53,49,46,50,47,44,95,92,87,30.00,29.91,9,2,9,0.01
2013-3-28,55,50,45,51,48,43,97,93,87,30.17,30.00,9,2,9,0.01
2013-3-29,55,50,46,51,48,44,95,92,86,30.22,30.15,23,4,23,0.00
2013-3-30,62,53,45,55,48,43,97,85,63,30.17,29.95,34,5,34,0.01
2013-3-31,55,51,48,52,49,47,96,93,87,30.06,29.98,25,6,26,0.00